TimeEST,TemperatureF,Dew PointF,Humidity,Sea Level PressureIn,VisibilityMPH,Wind Direction,Wind SpeedMPH,Gust SpeedMPH,PrecipitationIn,Events,Conditions,WindDirDegrees,DateUTC
12:53 AM,55.0,43.0,64,30.22,10.0,South,3.5,-,N/A,,Overcast,190,2013-11-22 05:53:00
1:53 AM,55.0,44.1,67,30.21,10.0,SSW,3.5,-,0.00,,Overcast,200,2013-11-22 06:53:00
2:53 AM,55.0,45.0,69,30.21,10.0,West,3.5,-,N/A,,Overcast,270,2013-11-22 07:53:00
3:50 AM,53.6,44.6,72,30.22,10.0,Calm,Calm,-,N/A,,Overcast,0,2013-11-22 08:50:00
3:53 AM,54.0,45.0,72,30.22,10.0,Variable,4.6,-,N/A,,Overcast,0,2013-11-22 08:53:00
4:53 AM,53.1,48.0,83,30.23,10.0,SSW,4.6,-,N/A,,Overcast,200,2013-11-22 09:53:00
5:02 AM,53.6,48.2,82,30.22,10.0,SSW,3.5,-,N/A,,Overcast,200,2013-11-22 10:02:00
5:36 AM,53.6,50.0,88,30.23,10.0,Calm,Calm,-,0.00,,Overcast,0,2013-11-22 10:36:00
5:53 AM,53.1,50.0,89,30.23,10.0,Calm,Calm,-,0.00,,Overcast,0,2013-11-22 10:53:00
6:53 AM,52.0,50.0,93,30.23,10.0,Calm,Calm,-,N/A,,Overcast,0,2013-11-22 11:53:00
7:07 AM,51.8,50.0,94,30.22,9.0,SSW,3.5,-,N/A,,Overcast,200,2013-11-22 12:07:00
7:21 AM,51.8,50.0,94,30.22,9.0,Calm,Calm,-,N/A,,Overcast,0,2013-11-22 12:21:00
7:53 AM,52.0,50.0,93,30.22,5.0,Calm,Calm,-,N/A,,Overcast,0,2013-11-22 12:53:00
8:19 AM,51.8,51.8,100,30.21,2.0,SSW,3.5,-,0.01,Rain,Light Rain,200,2013-11-22 13:19:00
8:36 AM,51.8,51.8,100,30.22,1.2,SSW,3.5,-,0.02,Rain,Light Rain,210,2013-11-22 13:36:00
8:53 AM,52.0,51.1,97,30.22,1.5,Calm,Calm,-,0.04,Rain,Light Rain,0,2013-11-22 13:53:00
9:15 AM,51.8,51.8,100,30.21,2.5,South,3.5,-,0.03,Rain,Light Rain,190,2013-11-22 14:15:00
9:43 AM,51.8,51.8,100,30.21,3.0,South,5.8,-,0.05,Rain,Light Rain,170,2013-11-22 14:43:00
9:53 AM,52.0,51.1,97,30.21,2.0,South,4.6,-,0.07,Rain,Rain,180,2013-11-22 14:53:00
10:10 AM,51.8,51.8,100,30.19,4.0,South,4.6,-,0.01,Rain,Light Rain,170,2013-11-22 15:10:00
10:53 AM,53.1,51.1,93,30.19,6.0,SSW,5.8,-,0.04,,Overcast,200,2013-11-22 15:53:00
11:53 AM,53.1,52.0,96,30.16,4.0,SSW,4.6,-,0.07,Rain,Light Rain,200,2013-11-22 16:53:00
12:53 PM,53.1,53.1,100,30.13,3.0,SSW,3.5,-,0.05,Rain,Light Rain,210,2013-11-22 17:53:00
1:53 PM,54.0,53.1,97,30.11,2.0,SSW,3.5,-,0.04,Rain,Light Rain,210,2013-11-22 18:53:00
2:03 PM,53.6,53.6,100,30.10,2.0,Calm,Calm,-,0.00,,Overcast,0,2013-11-22 19:03:00
2:44 PM,53.6,53.6,100,30.09,1.5,SSW,3.5,-,0.02,,Overcast,200,2013-11-22 19:44:00
2:53 PM,54.0,53.1,97,30.09,1.5,Calm,Calm,-,0.02,,Overcast,0,2013-11-22 19:53:00
3:27 PM,53.6,53.6,100,30.10,1.5,SSW,3.5,-,0.03,Rain,Light Rain,210,2013-11-22 20:27:00
3:53 PM,54.0,53.1,97,30.09,1.5,Calm,Calm,-,0.03,Rain,Light Rain,0,2013-11-22 20:53:00
4:24 PM,53.6,53.6,100,30.10,4.0,Calm,Calm,-,0.01,,Overcast,0,2013-11-22 21:24:00
4:53 PM,54.0,52.0,93,30.11,10.0,WNW,6.9,-,0.01,,Overcast,290,2013-11-22 21:53:00
5:27 PM,53.6,51.8,94,30.12,8.0,WNW,6.9,-,N/A,,Overcast,290,2013-11-22 22:27:00
5:36 PM,53.6,51.8,94,30.12,4.0,WNW,6.9,-,N/A,,Overcast,290,2013-11-22 22:36:00
5:53 PM,53.1,51.1,93,30.13,9.0,WNW,5.8,-,N/A,,Overcast,290,2013-11-22 22:53:00
6:46 PM,50.0,48.2,94,30.13,8.0,NW,8.1,-,0.01,,Overcast,310,2013-11-22 23:46:00
6:53 PM,50.0,48.0,93,30.14,7.0,NW,6.9,-,0.01,,Overcast,310,2013-11-22 23:53:00
7:09 PM,50.0,48.2,94,30.14,5.0,Variable,6.9,-,N/A,,Overcast,0,2013-11-23 00:09:00
7:53 PM,48.0,46.0,93,30.17,10.0,WNW,5.8,-,0.01,,Overcast,300,2013-11-23 00:53:00
8:09 PM,48.2,44.6,87,30.16,10.0,NW,5.8,-,N/A,,Overcast,320,2013-11-23 01:09:00
8:36 PM,46.4,44.6,93,30.18,10.0,NW,6.9,-,N/A,,Overcast,310,2013-11-23 01:36:00
8:53 PM,46.9,44.1,90,30.19,10.0,NW,6.9,-,N/A,,Overcast,310,2013-11-23 01:53:00
9:05 PM,46.4,44.6,93,30.18,10.0,WNW,8.1,-,N/A,,Overcast,300,2013-11-23 02:05:00
9:41 PM,44.6,42.8,93,30.19,10.0,WNW,5.8,-,0.00,Rain,Light Rain,300,2013-11-23 02:41:00
9:48 PM,44.6,42.8,93,30.19,10.0,NW,8.1,-,0.00,Rain,Light Rain,320,2013-11-23 02:48:00
9:53 PM,45.0,42.1,90,30.21,10.0,Variable,5.8,-,0.00,,Overcast,0,2013-11-23 02:53:00
10:53 PM,42.1,39.9,92,30.23,5.0,NW,8.1,-,0.00,,Light Drizzle,320,2013-11-23 03:53:00
11:29 PM,41.0,37.4,87,30.23,10.0,North,12.7,23.0,0.00,,Overcast,350,2013-11-23 04:29:00
11:53 PM,39.0,37.0,93,30.25,8.0,North,16.1,20.7,0.00,,Overcast,360,2013-11-23 04:53:00